FW1564 Weather Reports


Display with metric or nautical units.
time (UTC)temp
F
wind
direction
speed
MPH
gust
MPH
rain 1hr
in
rain 24hr
in
rain mn
in
humidity
%
barometer
mb
20220526104411 60 196 1.0 5.0 0.00 0.00 0.00 88 1021.5
20220526103400 60 177 0.0 8.0 0.00 0.00 0.00 87 1021.4
20220526102355 60 163 3.0 10.0 0.00 0.00 0.00 87 1021.4
20220526101349 60 212 3.0 8.0 0.00 0.00 0.00 86 1021.4
20220526100335 61 186 1.0 5.0 0.00 0.00 0.00 85 1021.4
20220526095336 61 65 1.0 5.0 0.00 0.00 0.00 85 1021.2
20220526094329 62 150 3.0 8.0 0.00 0.00 0.00 83 1021.2
20220526093330 63 133 4.0 5.0 0.00 0.00 0.00 79 1021.3
20220526092321 64 105 2.0 10.0 0.00 0.00 0.00 76 1021.1
20220526091318 64 176 9.0 10.0 0.00 0.00 0.00 73 1021.2
20220526090307 63 162 6.0 8.0 0.00 0.00 0.00 70 1021.2
20220526085256 61 210 3.0 8.0 0.00 0.00 0.00 72 1020.9
20220526084257 60 269 0.0 5.0 0.00 0.00 0.00 78 1020.9
20220526083259 59 2 3.0 5.0 0.00 0.00 0.00 79 1020.8
20220526082248 59 326 3.0 8.0 0.00 0.00 0.00 80 1020.7
20220526081242 58 343 5.0 8.0 0.00 0.00 0.00 78 1020.7
20220526080231 57 12 2.0 8.0 0.00 0.00 0.00 78 1020.5
20220526075224 57 341 6.0 8.0 0.00 0.00 0.00 81 1020.5
20220526074208 57 342 4.0 10.0 0.00 0.00 0.00 80 1020.2
20220526073202 56 339 5.0 10.0 0.00 0.00 0.00 80 1020.3
20220526072148 56 327 5.0 8.0 0.00 0.00 0.00 81 1020.3
20220526071149 56 351 5.0 10.0 0.00 0.00 0.00 82 1020.1
20220526070143 56 356 4.0 8.0 0.00 0.00 0.00 83 1020.2
20220526065140 56 333 5.0 10.0 0.00 0.00 0.00 81 1020.2
20220526064132 55 342 4.0 10.0 0.00 0.00 0.00 81 1020.1
20220526063131 55 324 7.0 10.0 0.00 0.00 0.00 81 1019.9
20220526062126 55 339 7.0 10.0 0.00 0.00 0.00 82 1020.0
20220526061112 55 330 6.0 10.0 0.00 0.00 0.00 83 1019.9
20220526060103 55 322 6.0 10.0 0.00 0.00 0.00 84 1019.9
20220526055101 55 350 4.0 10.0 0.00 0.00 0.00 85 1020.0
20220526054051 55 343 5.0 10.0 0.00 0.00 0.00 85 1020.1
20220526053055 55 336 6.0 8.0 0.00 0.00 0.00 84 1020.0
20220526052044 55 351 4.0 8.0 0.00 0.00 0.00 85 1019.9
20220526051045 56 327 4.0 10.0 0.00 0.00 0.00 83 1019.9
20220526050038 56 323 4.0 13.0 0.00 0.00 0.00 82 1019.7
20220526045032 56 329 9.0 13.0 0.00 0.00 0.00 81 1019.8
20220526044015 55 329 9.0 13.0 0.00 0.00 0.00 82 1019.8
20220526043019 55 328 6.0 13.0 0.00 0.00 0.00 82 1020.0
20220526042006 55 332 6.0 10.0 0.00 0.00 0.00 83 1019.9
20220526041013 55 324 5.0 8.0 0.00 0.00 0.00 86 1020.0
20220526035955 55 330 5.0 8.0 0.00 0.00 0.00 86 1020.1
20220526034959 55 327 5.0 8.0 0.00 0.00 0.00 85 1020.2
20220526033947 55 331 4.0 8.0 0.00 0.00 0.00 84 1020.3
20220526032948 55 333 2.0 8.0 0.00 0.00 0.00 86 1020.4
20220526031935 56 323 4.0 8.0 0.00 0.00 0.00 86 1020.4
20220526030940 56 323 3.0 10.0 0.00 0.00 0.00 84 1020.7
20220526025929 56 328 6.0 10.0 0.00 0.00 0.00 84 1020.7
20220526024932 56 332 7.0 10.0 0.00 0.00 0.00 84 1020.7
20220526023922 55 336 6.0 10.0 0.00 0.00 0.00 84 1020.8
20220526022923 55 342 6.0 10.0 0.00 0.00 0.00 84 1021.0
20220526021912 55 349 4.0 8.0 0.00 0.00 0.00 86 1021.1
20220526020911 56 322 3.0 8.0 0.00 0.00 0.00 85 1021.1
20220526015904 56 327 3.0 10.0 0.00 0.00 0.00 83 1021.2
20220526014851 56 339 6.0 10.0 0.00 0.00 0.00 82 1021.1
20220526013841 56 336 9.0 13.0 0.00 0.00 0.00 83 1021.3
20220526012844 56 327 6.0 10.0 0.00 0.00 0.00 84 1021.5
20220526011830 56 317 6.0 13.0 0.00 0.00 0.00 84 1021.5
20220526010832 56 325 6.0 10.0 0.00 0.00 0.00 85 1021.6
20220526005826 57 344 6.0 8.0 0.00 0.00 0.00 86 1021.8
20220526004826 57 316 3.0 8.0 0.00 0.00 0.00 85 1022.1
20220526003820 57 323 4.0 8.0 0.00 0.00 0.00 84 1022.3
20220526002818 57 324 6.0 8.0 0.00 0.00 0.00 85 1022.4
20220526001809 57 345 6.0 8.0 0.00 0.00 0.00 85 1022.4
20220526000753 57 341 3.0 10.0 0.00 0.00 0.00 85 1022.6
20220525235755 57 342 5.0 8.0 0.00 0.00 0.00 85 1022.6
20220525234748 57 339 4.0 10.0 0.00 0.00 0.00 84 1022.8
20220525233748 57 315 3.0 5.0 0.00 0.00 0.00 85 1022.9
20220525232739 57 339 2.0 5.0 0.00 0.00 0.00 85 1023.0
20220525231726 57 336 5.0 8.0 0.00 0.00 0.00 85 1023.0
20220525230721 58 312 5.0 8.0 0.00 0.00 0.00 85 1023.0
20220525225718 58 321 3.0 5.0 0.00 0.00 0.00 85 1023.1
20220525224716 58 314 3.0 5.0 0.00 0.00 0.00 85 1023.1
20220525223707 58 317 0.0 5.0 0.00 0.00 0.00 85 1023.1
20220525222703 57 326 3.0 8.0 0.00 0.00 0.00 86 1023.2
20220525221654 57 333 3.0 5.0 0.00 0.00 0.00 87 1023.1
20220525220651 58 349 2.0 8.0 0.00 0.00 0.00 88 1023.1
20220525215643 58 337 2.0 5.0 0.00 0.00 0.00 87 1023.0
20220525214640 58 331 2.0 5.0 0.00 0.00 0.00 87 1022.8
20220525213632 59 278 0.0 2.0 0.00 0.00 0.00 85 1022.8
20220525212620 59 282 0.0 2.0 0.00 0.00 0.00 85 1022.6
20220525211620 59 316 2.0 2.0 0.00 0.00 0.00 84 1022.8
20220525210602 59 317 0.0 2.0 0.00 0.00 0.00 83 1022.5
20220525205603 60 265 0.0 2.0 0.00 0.00 0.00 83 1022.8
20220525204551 60 201 0.0 2.0 0.00 0.00 0.00 82 1022.6
20220525203551 60 120 1.0 2.0 0.00 0.00 0.00 80 1022.5
20220525202547 60 223 0.0 2.0 0.00 0.00 0.00 80 1022.6
20220525201542 60 102 2.0 5.0 0.00 0.00 0.00 80 1022.5
20220525200538 60 209 0.0 8.0 0.00 0.00 0.00 80 1022.5
20220525195540 60 175 1.0 8.0 0.00 0.00 0.00 80 1022.4
20220525194526 60 242 0.0 5.0 0.00 0.00 0.00 80 1022.3
20220525193525 60 141 2.0 5.0 0.00 0.00 0.00 81 1022.4
20220525192515 60 209 0.0 5.0 0.00 0.00 0.00 81 1022.3
20220525191518 60 115 2.0 5.0 0.00 0.00 0.00 82 1022.2
20220525190506 60 146 0.0 5.0 0.00 0.00 0.00 81 1022.2
20220525185454 60 215 0.0 5.0 0.00 0.00 0.00 81 1022.1
20220525184447 60 182 1.0 5.0 0.00 0.00 0.00 81 1022.0
20220525183437 60 160 0.0 5.0 0.00 0.00 0.00 81 1022.1
20220525182429 60 190 1.0 8.0 0.00 0.00 0.00 81 1022.1
20220525181422 60 105 1.0 5.0 0.00 0.00 0.00 81 1022.0
20220525180421 60 116 1.0 5.0 0.00 0.00 0.00 80 1022.1
20220525175410 61 132 4.0 8.0 0.00 0.00 0.00 80 1022.0
20220525174358 61 200 1.0 8.0 0.00 0.00 0.00 80 1022.1
20220525173350 61 122 3.0 5.0 0.00 0.00 0.00 79 1022.2
20220525172336 61 102 3.0 8.0 0.00 0.00 0.00 78 1022.2
20220525171326 61 171 0.0 5.0 0.00 0.00 0.00 78 1022.2
20220525170325 61 214 0.0 8.0 0.00 0.00 0.00 78 1022.1
20220525165319 61 203 0.0 8.0 0.00 0.00 0.00 79 1022.3
20220525164307 61 194 1.0 8.0 0.00 0.00 0.00 78 1022.2
20220525163313 62 185 4.0 8.0 0.00 0.00 0.00 77 1022.2
20220525162301 62 166 1.0 8.0 0.00 0.00 0.00 77 1022.1
20220525161249 62 165 3.0 8.0 0.00 0.00 0.00 76 1022.0
20220525160249 63 190 1.0 10.0 0.00 0.00 0.00 76 1022.3
20220525155248 63 145 7.0 10.0 0.00 0.00 0.00 75 1022.2
20220525154240 63 197 2.0 10.0 0.00 0.00 0.00 75 1022.3
20220525153259 63 55 2.0 10.0 0.00 0.00 0.00 74 1022.3
20220525152223 63 202 1.0 8.0 0.00 0.00 0.00 75 1022.5
20220525151209 64 134 2.0 10.0 0.00 0.00 0.00 73 1022.5
20220525150210 64 157 5.0 10.0 0.00 0.00 0.00 73 1022.8
20220525145200 64 158 6.0 10.0 0.00 0.00 0.00 72 1022.8
20220525144154 64 148 4.0 13.0 0.00 0.00 0.00 70 1023.0
20220525143140 64 164 4.0 10.0 0.00 0.00 0.00 71 1023.0
20220525142130 64 206 6.0 13.0 0.00 0.00 0.00 72 1023.2
20220525141125 64 110 2.0 10.0 0.00 0.00 0.00 71 1023.2
20220525140122 64 226 2.0 13.0 0.00 0.00 0.00 72 1023.3
20220525135112 64 130 7.0 10.0 0.00 0.00 0.00 70 1023.2
20220525134111 64 182 5.0 10.0 0.00 0.00 0.00 70 1023.3
20220525133102 64 166 5.0 15.0 0.00 0.00 0.00 70 1023.3
20220525132112 64 128 5.0 10.0 0.00 0.00 0.00 69 1023.4
20220525131052 63 114 2.0 13.0 0.00 0.00 0.00 68 1023.4
20220525130105 63 83 9.0 13.0 0.00 0.00 0.00 70 1023.3
20220525125053 63 131 4.0 8.0 0.00 0.00 0.00 70 1023.3
20220525124044 63 185 5.0 10.0 0.00 0.00 0.00 70 1023.5
20220525123057 63 158 2.0 10.0 0.00 0.00 0.00 70 1023.5
20220525122038 64 94 4.0 10.0 0.00 0.00 0.00 69 1023.5
20220525121039 64 165 3.0 10.0 0.00 0.00 0.00 69 1023.4
20220525120044 65 155 4.0 13.0 0.00 0.00 0.00 68 1023.5
20220525115035 65 177 4.0 13.0 0.00 0.00 0.00 68 1023.6
20220525114033 65 131 6.0 8.0 0.00 0.00 0.00 66 1023.6
20220525113030 65 151 3.0 13.0 0.00 0.00 0.00 67 1023.6
20220525112009 65 147 4.0 13.0 0.00 0.00 0.00 65 1023.4
20220525111010 65 69 2.0 13.0 0.00 0.00 0.00 67 1023.6
20220525105957 64 152 4.0 15.0 0.00 0.00 0.00 68 1023.5
20220525104947 64 185 3.0 10.0 0.00 0.00 0.00 67 1023.5